Location: Newark
(48.8604°N, 2.3376°E)
Time: 23:53:38
(UTC+00:00)

XW-2C - Pass Details

Date: 16 December 2021
Orbit: 503 x 524 km, 97.5° (Epoch: 19 January)

Event Time Altitude Azimuth Distance (km) Brightness Sun altitude
Rises 06:55:40 0° 2° (N) 2,672 ? -6.8°
Reaches altitude 10° 06:58:04 10° 348° (NNW) 1,776 ? -6.4°
Maximum altitude 07:01:09 24° 294° (WNW) 1,132 ? -6.0°
Drops below altitude 10° 07:04:12 10° 241° (WSW) 1,758 ? -5.6°
Sets 07:06:34 0° 227° (SW) 2,637 ? -5.2°
